Location: Buckenweiler
(49.0667°N, 10.2500°E)
Time: 18:22:15
(UTC+00:00)

CZ-2D R/B - Pass Details

Date: 18 January 2026
Orbit: 388 x 398 km, 97.4° (Epoch: 16 February)

Event Time Altitude Azimuth Distance (km) Brightness Sun altitude
Rises 05:49:54 0° 16° (NNE) 2,331 6.5 -12.1°
Reaches altitude 10° 05:51:56 10° 21° (NNE) 1,461 5.5 -11.8°
Maximum altitude 05:55:00 56° 100° (E) 483 3.4 -11.3°
Drops below altitude 10° 05:58:01 10° 181° (S) 1,434 5.7 -10.9°
Sets 05:59:59 0° 185° (S) 2,282 6.7 -10.6°
